Погода в Исити

Погода в Исити : погода сейчас, прогноз погоды и архив. Всё, что Вы хотите узнать о погоде в Исити!

Хотите узнать прогноз погоды в Исити? Тогда Вам сюда: Погода в Исити

Поиск расширенной информации на нашем сайте:

Другие новости

Новости СМИ2

Главная страница сайта

Новости сайта

02.10.2013

Напоминаем, что на нашем новом сайте вы можете получить высокодетализированные прогнозы погоды по пунктам России, СНГ и мира (включающие важные для авиации метеовеличины, такие как направление и скорость ветра, видимость, явления погоды, количество и форма облачности, нижняя и верхняя граница облачности), а также ознакомиться с разнообразными материалами по авиационной метеорологии и подборкой полезных ссылок на эту тему.

Сайт Метеоцентр.Азия посвящён разработке технологий оптимизации авиаметеорологического обслуживания, включая проектирование и перспективное создание нескольких автоматизированных авиаметеорологических систем:
- система выпуска высокодетальных прогностических карт явлений погоды для нижнего воздушного пространства по России и ближнему зарубежью;
- система верификации прогнозов TAF (выпускаемых синоптиками официальных АМСГ РФ и ближнего зарубежья) и AUTOTAF (выпускаемых сайтом Метеоцентр.Азия) - выявление ошибок, онлайн-сопоставление с фактической погодой METAR, автоматическое внесение коррективов в прогнозы при резком отклонении фактической погоды от прогноза, подсчёт оправдываемости прогнозов по элементам и в целом;
- система обработки, анализа и отображения авиаметеорологической информации для применения провайдерами метеорологической информации.

Рекомендуем: Летняя и зимняя спецодежда оптом противогазы и озк москва.

Погода в Исити - сегодня

Время (UTC), дата Ветер
(°,м/с) 
Видим.   Явления Облачность Т
(°С)
Тd
(°С)
f(%) Тe
(°С)
Pmin
(гПа)
dP
(гПа)
Po
(мм)
O2
(г/м3)
Тmin Tmax R s Состояние
почвы
00 24.06.17 280 (З) 10 км  мгла  6/4 1000 м кучево-дожд., верхняя 
[Cb calv|Ci sp]
+19.5 +14.3 72 +28  1004.6  742  276  +17.6        сухая 
03 24.06.17 270 (З) 10 км  мгла  6/0 средняя, верхняя 
[Ac lent|Ci sp]
+24.4 +16.6 62 +36  1004.5  0.1  742  271           
06 24.06.17 270 (З) 20000 м  дым  4/3 1000 м верхняя 
[Cu hum|Ci fib]
+27.5 +17.4 54 +41  1003.5  -0.8  742  268           
09 24.06.17 210 (ЮЗ) 20000 м    8/3 1000 м средняя, верхняя 
[Sc diur, vesp|Ac lent|Ci sp]
+28.9 +14.6 42 +37  1003.7  0.2  742  267           
12 24.06.17 110 (В) 20000 м    8/6 1000 м средняя, верхняя 
[Sc|Ac trans|Ci sp]
+24.3 +15.2 57 +34  1005.4  1.5  743  272    +30       
15 24.06.17 тихо ()   20000 м    10/4 1000 м средняя, верхняя 
[Sc|Ac lent|Cs]
+19.7 +14 70 +27  1007.5  1.9  744  277           
18 24.06.17 020 (С) 20000 м    6/1 1000 м средняя, верхняя 
[Sc|Ac lent|Ci sp]
+17.2 +10.3 64 +20  1008.7  745  281           
21 24.06.17 тихо ()   20000 м    6/0 средняя, верхняя 
[Ac trans|Ci sp]
+14.3 +10.5 78 +16  1010.1  1.2  746  284           
00 25.06.17 120 (ЮВ) 20000 м    9/3 1000 м средняя, верхняя 
[Sc|Ac trans|Ci fib]
+16.4 +12.2 76 +21  1009.7  -0.2  746  281  +14        сухая 
03 25.06.17 130 (ЮВ) 20000 м    3/0 средняя, верхняя 
[Ac lent|Ci fib]
+20.9 +12.4 58 +26  1008.8  -0.6  745  277           
06 25.06.17 110 (В) 20000 м    ясно 
+23 +11.9 50 +27  1007.6  -1.1  744  274           
09 25.06.17 110 (В) 20000 м    4/1 1000 м средняя, верхняя 
[Sc|Ac lent|Ci fib]
+24 +14.2 54 +32  1006.7  -0.8  744  273           
12 25.06.17 060 (СВ) 20000 м    6/4 1000 м верхняя 
[Sc|Ci fib]
+21.6 +14.8 65 +30  1006.9  0.1  744  275    +25.5       
15 25.06.17 060 (СВ) 20000 м    9/6 1000 м средняя 
[Sc|Ac As]
+18.7 +11.8 64 +24  1007.1  744  278           
18 25.06.17 020 (С) 20000 м    8/0 средняя, верхняя 
[Ac lent|Cc]
+4.4 +11 100 +8  1007.6  0.3  744  293           
21 25.06.17 090 (В) 20000 м    9/0 средняя, верхняя 
[Ac lent|Ci fib]
+14.7 +11.1 79 +19  1007.5  -0.1  744  282           
00 26.06.17 130 (ЮВ) 20000 м    8/0 верхняя 
[Ci fib]
+18.5 +14.9 80 +28  1007.8  0.5  744  278  +12.9        сухая 
03 26.06.17 130 (ЮВ) 20000 м    6/0 верхняя 
[Ci fib]
+24.1 +15.1 57 +33  1005.5  -2  743  272           
06 26.06.17 130 (ЮВ) 20000 м    6/0 верхняя 
[Ci fib]
+29.6 +11.5 33 +33  1003.3  -1.9  741  267           
09 26.06.17 170 (Ю) 20000 м    4/0 верхняя 
[Ci fib]
+30 +3.2 18 +30  1001.9  -1.3  740  268           
12 26.06.17 080 (В) 20000 м    6/0 средняя, верхняя 
[Ac lent|Ci sp]
+27.4 +3.4 21 +27  1001.5  -0.5  740  270    +30.5       
15 26.06.17 080 (В) 20000 м    8/0 средняя, верхняя 
[Ac lent|Ci fib]
+21.1 +5.7 37 +21  1001.9  0.1  740  276           
18 26.06.17 030 (СВ) 20000 м    3/0 средняя, верхняя 
[Ac lent|Ci fib]
+18.5 +6.7 46 +20  1002.2  0.1  740  278           
21 26.06.17 080 (В) 20000 м    6/0 средняя, верхняя 
[Ac lent|Ci fib]
+22.3 +8.1 40 +22  1001.7  -0.3  740  274           
00 27.06.17 090 (В) 20000 м    8/0 средняя, верхняя 
[Ac lent|Ci fib]
+21.8 +13.9 61 +29  1001.5  -0.2  740  273  +18.1        сухая 
Время (UTC), дата Ветер
(°,м/с) 
Видим.   Явления Облачность Т
(°С)
Тd
(°С)
f(%) Тe
(°С)
Pmin
(гПа)
dP
(гПа)
Po
(мм)
O2
(г/м3)
Тmin Tmax R s Состояние
почвы

Для получения пояснительной информации подведите курсор к названию столбца.

ПОГОДА в Исити - архив

Всё, что Вы хотите узнать о погоде в Исити - удобно и подробно!

Выберите нужную дату (начиная с 1 января 2015* года) и нажмите кнопку "Найти".
Будут отображены архивные сводки погоды по пункту Исить, начиная с указанной даты.


Отображать данные в формате CSV (для использования в таблицах Excel)


Внимание! Наш архив погоды предназначен исключительно для личного некоммерческого использования в познавательных целях. Если Вам необходимы официальные справки о состоянии погоды (для производственных, юридических, коммерческих и т.п. целей), обращайтесь в органы Росгидромета.

*Примечание: данная дата относится к архиву по метеостанциям СССР (Россия, СНГ, Балтия).
Архив по метеостанциям Зарубежной Европы и Азии (кроме Китая) хранится 10 дней, по другим регионам земного шара (Китай, Африка, Америка, Австралия, Океания) - 1 день.

Исить - район местоположения метеостанции


Название, широта, долгота, высота метеостанции:
Исить 60.8°ш. 125.3°д. 118 м над ур. моря [Российская Федерация]

Дополнительная информация

В oтличие oт бoльшинства пoгoдных сайтoв мы публикуем пoдрoбную метеoинфoрмацию в детальнoм прoфессиoнальнoм фoрмате.

Характеристики температуры и влажнoсти вoздуха измеряются на высoте 2 м в тени вдали oт зданий и деревьев.
Скoрoсть ветра измеряется на высoте 10 м (на урoвне рoста челoвека скoрoсть ветра ниже в 1.5-2 раза). Если метеoстанция нахoдится в гoрoде или в лесу, тo скoрoсть ветра занижена на 2-4 м/с пo сравнению с oткрытым местoм. Скoрoсть ветра над акватoриями крупных рек и oзёр, а также на вершинах хoлмoв на 2-5 м/с выше, чем в oбычных услoвиях.
Атмoсфернoе давление в разных тoчках местнoсти мoжет значительнo oтличаться oт давления на метеoстанции, в зависимoсти oт услoвий рельефа (при пoдъёме на 10 м давление пoнижается примернo на 1 мм рт.ст.).